TimeEST,TemperatureF,Dew PointF,Humidity,Sea Level PressureIn,VisibilityMPH,Wind Direction,Wind SpeedMPH,Gust SpeedMPH,PrecipitationIn,Events,Conditions,WindDirDegrees,DateUTC
12:01 AM,30.2,24.8,80,30.04,4.0,NW,8.1,-,N/A,Snow,Light Snow,320,2004-01-06 05:01:00
12:21 AM,30.2,24.8,80,30.04,7.0,NW,11.5,17.3,N/A,,Overcast,320,2004-01-06 05:21:00
12:41 AM,30.2,24.8,80,30.04,10.0,NW,11.5,23.0,N/A,,Overcast,310,2004-01-06 05:41:00
1:02 AM,30.2,24.8,80,30.04,10.0,WNW,17.3,32.2,N/A,,Overcast,300,2004-01-06 06:02:00
1:21 AM,30.2,24.8,80,30.04,10.0,WNW,18.4,29.9,N/A,,Overcast,290,2004-01-06 06:21:00
1:41 AM,26.6,23.0,86,30.04,10.0,WNW,25.3,31.1,N/A,,Overcast,290,2004-01-06 06:41:00
2:01 AM,26.6,21.2,80,30.06,10.0,WNW,16.1,33.4,N/A,,Overcast,300,2004-01-06 07:01:00
2:21 AM,26.6,21.2,80,30.06,10.0,NW,9.2,28.8,N/A,,Overcast,320,2004-01-06 07:21:00
2:41 AM,26.6,21.2,80,30.06,10.0,NW,13.8,18.4,N/A,,Overcast,310,2004-01-06 07:41:00
3:01 AM,26.6,21.2,80,30.07,10.0,NW,13.8,20.7,N/A,,Overcast,320,2004-01-06 08:01:00
3:21 AM,24.8,19.4,80,30.08,10.0,NNW,17.3,25.3,N/A,,Overcast,330,2004-01-06 08:21:00
3:41 AM,24.8,19.4,80,30.08,10.0,NW,15.0,28.8,N/A,,Overcast,320,2004-01-06 08:41:00
4:01 AM,24.8,19.4,80,30.08,10.0,NW,15.0,26.5,N/A,,Overcast,310,2004-01-06 09:01:00
4:21 AM,24.8,17.6,74,30.08,10.0,NW,19.6,27.6,N/A,,Overcast,320,2004-01-06 09:21:00
4:42 AM,24.8,17.6,74,30.08,10.0,NW,12.7,20.7,N/A,,Overcast,310,2004-01-06 09:42:00
5:02 AM,23.0,17.6,80,30.09,10.0,NW,13.8,24.2,N/A,,Overcast,310,2004-01-06 10:02:00
5:21 AM,23.0,17.6,80,30.09,10.0,NW,13.8,24.2,N/A,,Overcast,310,2004-01-06 10:21:00
5:41 AM,23.0,17.6,80,30.10,10.0,NW,11.5,19.6,N/A,,Overcast,310,2004-01-06 10:41:00
6:01 AM,23.0,15.8,74,30.11,10.0,NW,6.9,25.3,N/A,,Overcast,310,2004-01-06 11:01:00
6:21 AM,23.0,15.8,74,30.11,10.0,WNW,9.2,23.0,N/A,,Overcast,300,2004-01-06 11:21:00
6:41 AM,23.0,15.8,74,30.11,10.0,NW,15.0,28.8,N/A,,Overcast,310,2004-01-06 11:41:00
7:01 AM,23.0,15.8,74,30.12,10.0,WNW,9.2,17.3,N/A,,Overcast,300,2004-01-06 12:01:00
7:21 AM,23.0,15.8,74,30.12,10.0,NW,16.1,23.0,N/A,,Overcast,320,2004-01-06 12:21:00
7:41 AM,23.0,15.8,74,30.13,10.0,NW,8.1,23.0,N/A,,Overcast,310,2004-01-06 12:41:00
8:01 AM,23.0,15.8,74,30.13,10.0,NW,17.3,27.6,N/A,,Overcast,310,2004-01-06 13:01:00
8:21 AM,24.8,15.8,69,30.14,7.0,NNW,10.4,21.9,N/A,Snow,Light Snow,330,2004-01-06 13:21:00
8:42 AM,24.8,15.8,69,30.14,4.0,WNW,9.2,-,N/A,Snow,Light Snow,300,2004-01-06 13:42:00
9:01 AM,24.8,15.8,69,30.15,7.0,WNW,11.5,23.0,N/A,Snow,Light Snow,300,2004-01-06 14:01:00
9:21 AM,24.8,15.8,69,30.16,7.0,WNW,13.8,25.3,N/A,Snow,Light Snow,290,2004-01-06 14:21:00
9:41 AM,24.8,15.8,69,30.17,7.0,WNW,10.4,23.0,N/A,Snow,Light Snow,290,2004-01-06 14:41:00
10:01 AM,24.8,15.8,69,30.18,7.0,WNW,8.1,18.4,N/A,Snow,Light Snow,290,2004-01-06 15:01:00
10:21 AM,26.6,15.8,64,30.18,10.0,WNW,10.4,34.5,N/A,,Mostly Cloudy,300,2004-01-06 15:21:00
10:41 AM,26.6,17.6,69,30.18,10.0,WNW,11.5,20.7,N/A,,Scattered Clouds,300,2004-01-06 15:41:00
11:01 AM,26.6,15.8,64,30.18,10.0,WNW,12.7,21.9,N/A,,Mostly Cloudy,300,2004-01-06 16:01:00
11:21 AM,26.6,17.6,69,30.18,10.0,NW,11.5,20.7,N/A,,Overcast,310,2004-01-06 16:21:00
11:41 AM,26.6,15.8,64,30.18,10.0,WNW,17.3,24.2,N/A,,Mostly Cloudy,290,2004-01-06 16:41:00
12:01 PM,26.6,15.8,64,30.17,10.0,West,15.0,18.4,N/A,,Overcast,270,2004-01-06 17:01:00
12:21 PM,26.6,15.8,64,30.15,10.0,WNW,17.3,29.9,N/A,,Overcast,290,2004-01-06 17:21:00
12:41 PM,26.6,15.8,64,30.15,10.0,West,11.5,20.7,N/A,,Overcast,260,2004-01-06 17:41:00
1:01 PM,24.8,14.0,64,30.15,10.0,West,17.3,24.2,N/A,,Overcast,280,2004-01-06 18:01:00
1:21 PM,24.8,12.2,59,30.15,10.0,West,17.3,27.6,N/A,,Overcast,280,2004-01-06 18:21:00
1:41 PM,24.8,12.2,59,30.14,10.0,West,16.1,28.8,N/A,,Overcast,270,2004-01-06 18:41:00
2:02 PM,24.8,12.2,59,30.13,10.0,West,16.1,21.9,N/A,Snow,Light Snow,270,2004-01-06 19:02:00
2:21 PM,24.8,15.8,69,30.13,5.0,WNW,16.1,25.3,N/A,Snow,Light Snow,290,2004-01-06 19:21:00
2:41 PM,24.8,15.8,69,30.13,5.0,West,15.0,31.1,N/A,Snow,Light Snow,260,2004-01-06 19:41:00
3:02 PM,24.8,12.2,59,30.13,10.0,WNW,15.0,27.6,N/A,Snow,Light Snow,300,2004-01-06 20:02:00
3:22 PM,24.8,10.4,54,30.14,10.0,West,10.4,21.9,N/A,,Overcast,270,2004-01-06 20:22:00
3:41 PM,24.8,10.4,54,30.15,10.0,WNW,12.7,23.0,N/A,,Overcast,290,2004-01-06 20:41:00
4:02 PM,23.0,12.2,63,30.16,5.0,West,10.4,28.8,N/A,Snow,Light Snow,280,2004-01-06 21:02:00
4:21 PM,21.2,12.2,68,30.16,2.0,West,6.9,26.5,N/A,Snow,Light Snow,280,2004-01-06 21:21:00
4:42 PM,21.2,15.8,80,30.16,1.0,NNW,5.8,-,N/A,Snow,Light Snow,330,2004-01-06 21:42:00
5:01 PM,21.2,14.0,74,30.18,1.5,WNW,6.9,16.1,N/A,Snow,Light Snow,290,2004-01-06 22:01:00
5:21 PM,19.4,12.2,74,30.18,2.0,WNW,20.7,27.6,N/A,Snow,Light Snow,300,2004-01-06 22:21:00
5:42 PM,19.4,8.6,63,30.18,10.0,WNW,17.3,25.3,N/A,,Overcast,300,2004-01-06 22:42:00
6:01 PM,17.6,6.8,63,30.20,10.0,NW,8.1,20.7,N/A,,Mostly Cloudy,310,2004-01-06 23:01:00
6:21 PM,17.6,5.0,58,30.20,10.0,WNW,8.1,-,N/A,,Clear,290,2004-01-06 23:21:00
6:42 PM,17.6,3.2,53,30.20,10.0,WNW,11.5,25.3,N/A,,Clear,290,2004-01-06 23:42:00
7:01 PM,17.6,1.4,49,30.20,10.0,WNW,11.5,19.6,N/A,,Clear,290,2004-01-07 00:01:00
7:21 PM,17.6,1.4,49,30.20,10.0,Calm,Calm,-,N/A,,Clear,0,2004-01-07 00:21:00
7:41 PM,15.8,-0.4,49,30.21,10.0,WNW,11.5,16.1,N/A,,Clear,290,2004-01-07 00:41:00
8:01 PM,15.8,-2.2,45,30.22,10.0,WNW,8.1,17.3,N/A,,Clear,290,2004-01-07 01:01:00
8:21 PM,15.8,-2.2,45,30.23,10.0,NW,5.8,18.4,N/A,,Clear,310,2004-01-07 01:21:00
8:41 PM,15.8,-2.2,45,30.23,10.0,Calm,Calm,-,N/A,,Clear,0,2004-01-07 01:41:00
9:02 PM,15.8,-0.4,49,30.24,10.0,West,4.6,-,N/A,,Clear,280,2004-01-07 02:02:00
9:21 PM,15.8,-0.4,49,30.24,10.0,NW,9.2,-,N/A,,Clear,310,2004-01-07 02:21:00
9:41 PM,15.8,-0.4,49,30.24,10.0,WNW,9.2,-,N/A,,Clear,290,2004-01-07 02:41:00
10:01 PM,15.8,-2.2,45,30.24,10.0,WNW,9.2,-,N/A,,Clear,290,2004-01-07 03:01:00
10:21 PM,14.0,-2.2,49,30.24,10.0,WNW,3.5,-,N/A,,Clear,300,2004-01-07 03:21:00
10:41 PM,12.2,-4.0,48,30.24,10.0,West,3.5,-,N/A,,Clear,280,2004-01-07 03:41:00
11:01 PM,12.2,-5.8,45,30.23,10.0,Calm,Calm,-,N/A,,Clear,0,2004-01-07 04:01:00
11:21 PM,12.2,-4.0,48,30.23,10.0,Calm,Calm,-,N/A,,Clear,0,2004-01-07 04:21:00
11:41 PM,12.2,-2.2,53,30.23,10.0,WNW,5.8,-,N/A,,Clear,300,2004-01-07 04:41:00